Home   Weather   Celle   Past weeks

Flag for Germany Past Weather in Celle, Lower Saxony, Germany — Yesterday and Last 2 Weeks

Now
57 °F

Passing clouds.


Feels Like: 57 °F
Forecast: 49 / 78 °F
Wind: No wind

Location: Celle Airport

Current Time: Aug 31, 2016 at 12:50:42 AM

Latest Report: Aug 30, 2016 at 11:20 PM


Visibility: N/A

Pressure: 30.27 "Hg

Humidity: 77%

Dew Point: 50 °F

Location of CelleLocation

Past Weather in Celle — Graph

°F

Celle Temperature Yesterday

Maximum temperature yesterday: 73 °F (at 5:20 PM)
Minimum temperature yesterday: 46 °F (at 5:20 AM)
Average temperature yesterday: 60 °F

High & Low Weather Summary for the Past Weeks

 TemperatureHumidityPressure
High93 °F (Aug 26, 2:20 PM)100% (Aug 16, 2:20 AM)30.33 "Hg (Aug 16, 2:20 AM)
Low45 °F (Aug 16, 6:20 AM)23% (Aug 25, 5:20 PM)29.80 "Hg (Aug 18, 3:20 PM)
Average67 °F70%30.05 "Hg
* Reported Aug 15 11:20 PM — Aug 30 11:20 PM, Celle, Weather by CustomWeather, © 2016

Note: Actual official high and low records may vary slightly from our data, if they occured in-between our weather recording intervals... More about our weather records

Advertising

Celle Weather History for the Previous 24 Hours

Scroll right to see more
 ConditionsComfort  
Time TempWeatherWind HumidityBarometerVisibility
11:20 PM
Tue, Aug 30
57 °FPassing clouds.No wind77%30.27 "HgN/A
10:20 PM59 °FPassing clouds.No wind77%30.27 "HgN/A
9:20 PM63 °FMild.No wind64%30.27 "HgN/A
8:20 PM66 °FPassing clouds.3 mph56%30.27 "HgN/A
7:20 PM72 °FPassing clouds.3 mph44%30.27 "HgN/A
6:20 PM73 °FPassing clouds.7 mph41%30.27 "HgN/A
5:20 PM73 °FPassing clouds.6 mph41%30.27 "HgN/A
4:20 PM72 °FPassing clouds.5 mph44%30.27 "HgN/A
3:20 PM72 °FPassing clouds.5 mph44%30.30 "HgN/A
2:20 PM72 °FPassing clouds.9 mph44%30.30 "HgN/A
1:20 PM68 °FPassing clouds.6 mph49%30.30 "HgN/A
12:20 PM66 °FPassing clouds.7 mph56%30.33 "HgN/A
11:20 AM66 °FScattered clouds.6 mph60%30.33 "HgN/A
10:20 AM63 °FPassing clouds.6 mph68%30.33 "HgN/A
9:20 AM59 °FPassing clouds.2 mph77%30.30 "HgN/A
8:20 AM52 °FScattered clouds.3 mph94%30.30 "HgN/A
7:20 AM48 °FFog.No wind94%30.27 "HgN/A
6:20 AM48 °FFog.2 mph94%30.27 "HgN/A
5:20 AM46 °FFog.No wind100%30.27 "HgN/A
4:20 AM48 °FFog.No wind94%30.27 "HgN/A
3:20 AM48 °FFog.3 mph100%30.24 "HgN/A
2:20 AM48 °FFog.No wind94%30.24 "HgN/A
1:20 AM50 °FCool.2 mph94%30.24 "HgN/A
12:20 AM52 °FCool.3 mph94%30.24 "HgN/A
Weather by CustomWeather, © 2016

See weather overviewHow to use our weather pages